Powrót do katalogu

STARLINK-4116

AktywnyŁącznośćVLEO
NORAD 53164·PAYLOAD·🇺🇸 United States

Wystrzelony Jul 17, 2022 z Cape Canaveral Space Force Station

Loading…

Następne Przeloty (najbliższe 24 godziny)

TLE

ŚwieżeSource: CelesTrak SupGP

Epoka: Sep 15, 2026, 01:37 UTC

1 53164C 22083AJ  26258.06784722 -.00023585  00000+0 -69598-3 0  2585
2 53164  53.1612  30.8433 0001397  93.6209  37.1722 15.34440109    13

Śledź STARLINK-4116 w czasie rzeczywistym z AllMySat

Download on the App Store